Вернуться в каталог

MEV-1

АктивенНаукаGEO
NORAD 44625·PAYLOAD·🇺🇸 United States

Запущен Oct 9, 2019 с Baikonur Cosmodrome

Loading…

TLE

СвежийSource: Space-Track

Эпоха: Sep 14, 2026, 04:52 UTC

1 44625U 19067B   26257.20286572 -.00000155  00000-0  00000+0 0  9999
2 44625   0.8207 267.9753 0004160 263.8733  50.5024  1.00273096 62453

Отслеживайте MEV-1 в реальном времени с AllMySat

Download on the App Store